TimeEST,TemperatureF,Dew PointF,Humidity,Sea Level PressureIn,VisibilityMPH,Wind Direction,Wind SpeedMPH,Gust SpeedMPH,PrecipitationIn,Events,Conditions,WindDirDegrees,DateUTC
12:15 AM,48.2,37.4,66,30.18,10.0,NE,6.9,-,N/A,,Overcast,40,2012-12-07 05:15:00
12:35 AM,48.2,37.4,66,30.18,10.0,NE,6.9,-,N/A,,Overcast,40,2012-12-07 05:35:00
12:55 AM,48.2,37.4,66,30.18,10.0,NE,8.1,-,N/A,,Overcast,40,2012-12-07 05:55:00
1:15 AM,48.2,37.4,66,30.17,10.0,NNE,6.9,-,N/A,,Overcast,30,2012-12-07 06:15:00
1:35 AM,48.2,37.4,66,30.17,10.0,NNE,8.1,-,N/A,,Overcast,30,2012-12-07 06:35:00
1:55 AM,48.2,37.4,66,30.16,10.0,NE,6.9,-,N/A,,Overcast,40,2012-12-07 06:55:00
2:15 AM,48.2,37.4,66,30.16,10.0,NE,8.1,-,N/A,,Overcast,40,2012-12-07 07:15:00
2:35 AM,48.2,37.4,66,30.16,10.0,NE,5.8,-,N/A,,Overcast,50,2012-12-07 07:35:00
2:55 AM,48.2,37.4,66,30.16,10.0,NE,6.9,-,N/A,,Overcast,40,2012-12-07 07:55:00
3:15 AM,48.2,37.4,66,30.15,10.0,NE,5.8,-,N/A,,Overcast,40,2012-12-07 08:15:00
3:35 AM,48.2,37.4,66,30.14,10.0,NNE,6.9,-,N/A,,Overcast,30,2012-12-07 08:35:00
3:55 AM,48.2,37.4,66,30.14,10.0,NE,8.1,-,N/A,,Overcast,40,2012-12-07 08:55:00
4:15 AM,48.2,37.4,66,30.14,10.0,NNE,8.1,-,N/A,,Overcast,30,2012-12-07 09:15:00
4:35 AM,48.2,37.4,66,30.13,10.0,NE,5.8,-,N/A,,Overcast,50,2012-12-07 09:35:00
4:55 AM,48.2,37.4,66,30.13,10.0,NE,6.9,-,N/A,,Overcast,40,2012-12-07 09:55:00
5:15 AM,48.2,37.4,66,30.12,10.0,Calm,Calm,-,N/A,,Overcast,0,2012-12-07 10:15:00
5:35 AM,48.2,39.2,71,30.12,10.0,ENE,4.6,-,N/A,,Overcast,60,2012-12-07 10:35:00
5:55 AM,48.2,39.2,71,30.13,10.0,NNE,6.9,-,N/A,,Overcast,30,2012-12-07 10:55:00
6:15 AM,48.2,39.2,71,30.13,10.0,NNE,8.1,-,N/A,,Overcast,30,2012-12-07 11:15:00
6:35 AM,48.2,39.2,71,30.14,10.0,NNE,6.9,-,N/A,,Overcast,30,2012-12-07 11:35:00
6:55 AM,48.2,39.2,71,30.14,10.0,NE,6.9,-,N/A,,Overcast,40,2012-12-07 11:55:00
7:15 AM,48.2,39.2,71,30.13,10.0,NE,8.1,-,N/A,,Overcast,50,2012-12-07 12:15:00
7:35 AM,48.2,39.2,71,30.13,10.0,NE,8.1,-,N/A,,Overcast,40,2012-12-07 12:35:00
7:55 AM,48.2,39.2,71,30.13,10.0,NNE,6.9,-,N/A,,Overcast,20,2012-12-07 12:55:00
8:15 AM,50.0,39.2,66,30.13,10.0,NNE,8.1,-,N/A,,Overcast,30,2012-12-07 13:15:00
8:35 AM,50.0,39.2,66,30.14,10.0,NE,6.9,-,N/A,,Overcast,50,2012-12-07 13:35:00
8:55 AM,50.0,41.0,71,30.14,10.0,NE,6.9,-,N/A,,Overcast,50,2012-12-07 13:55:00
9:15 AM,50.0,41.0,71,30.14,10.0,ENE,5.8,-,N/A,,Overcast,70,2012-12-07 14:15:00
9:35 AM,50.0,41.0,71,30.15,10.0,NE,6.9,-,N/A,,Overcast,50,2012-12-07 14:35:00
9:55 AM,51.8,41.0,67,30.14,10.0,NE,5.8,-,N/A,,Overcast,40,2012-12-07 14:55:00
10:15 AM,51.8,42.8,71,30.14,10.0,NE,6.9,-,N/A,,Overcast,40,2012-12-07 15:15:00
10:35 AM,53.6,42.8,67,30.14,10.0,NNE,5.8,-,N/A,,Overcast,30,2012-12-07 15:35:00
10:55 AM,53.6,42.8,67,30.13,10.0,North,6.9,-,N/A,,Overcast,360,2012-12-07 15:55:00
11:15 AM,53.6,44.6,72,30.12,10.0,NE,4.6,-,N/A,,Overcast,40,2012-12-07 16:15:00
11:35 AM,55.4,44.6,67,30.10,10.0,North,5.8,-,N/A,,Overcast,360,2012-12-07 16:35:00
11:55 AM,55.4,44.6,67,30.09,10.0,NE,4.6,-,N/A,,Overcast,40,2012-12-07 16:55:00
12:15 PM,55.4,46.4,72,30.09,10.0,Calm,Calm,-,N/A,,Overcast,0,2012-12-07 17:15:00
12:35 PM,55.4,46.4,72,30.07,10.0,North,4.6,-,N/A,,Overcast,360,2012-12-07 17:35:00
12:55 PM,57.2,46.4,67,30.06,10.0,NNW,5.8,-,N/A,,Overcast,340,2012-12-07 17:55:00
1:15 PM,57.2,46.4,67,30.05,10.0,Calm,Calm,-,N/A,,Overcast,0,2012-12-07 18:15:00
1:35 PM,57.2,46.4,67,30.04,10.0,Calm,Calm,-,N/A,,Overcast,0,2012-12-07 18:35:00
1:55 PM,57.2,48.2,72,30.04,10.0,Calm,Calm,-,N/A,,Overcast,0,2012-12-07 18:55:00
2:15 PM,57.2,48.2,72,30.04,10.0,North,3.5,-,N/A,,Overcast,10,2012-12-07 19:15:00
2:35 PM,57.2,48.2,72,30.03,10.0,North,4.6,-,N/A,,Overcast,10,2012-12-07 19:35:00
2:55 PM,57.2,48.2,72,30.03,10.0,North,3.5,-,N/A,,Overcast,360,2012-12-07 19:55:00
3:15 PM,57.2,48.2,72,30.02,10.0,North,4.6,-,N/A,,Overcast,350,2012-12-07 20:15:00
3:35 PM,57.2,50.0,77,30.03,10.0,NNW,3.5,-,N/A,,Overcast,330,2012-12-07 20:35:00
3:55 PM,57.2,50.0,77,30.02,10.0,Calm,Calm,-,N/A,,Overcast,0,2012-12-07 20:55:00
4:15 PM,57.2,50.0,77,30.03,10.0,NNE,4.6,-,N/A,,Overcast,20,2012-12-07 21:15:00
4:35 PM,57.2,50.0,77,30.03,10.0,NE,4.6,-,N/A,,Overcast,40,2012-12-07 21:35:00
4:55 PM,57.2,50.0,77,30.03,10.0,Calm,Calm,-,N/A,,Overcast,0,2012-12-07 21:55:00
5:15 PM,57.2,50.0,77,30.04,10.0,Calm,Calm,-,N/A,,Overcast,0,2012-12-07 22:15:00
5:35 PM,57.2,50.0,77,30.03,10.0,Calm,Calm,-,N/A,,Overcast,0,2012-12-07 22:35:00
5:55 PM,57.2,50.0,77,30.03,10.0,Calm,Calm,-,N/A,,Overcast,0,2012-12-07 22:55:00
6:15 PM,55.4,50.0,82,30.04,10.0,Calm,Calm,-,N/A,,Overcast,0,2012-12-07 23:15:00
6:35 PM,55.4,50.0,82,30.04,10.0,Calm,Calm,-,N/A,,Overcast,0,2012-12-07 23:35:00
6:55 PM,55.4,50.0,82,30.04,10.0,Calm,Calm,-,N/A,,Overcast,0,2012-12-07 23:55:00
7:15 PM,55.4,50.0,82,30.04,10.0,Calm,Calm,-,N/A,,Overcast,0,2012-12-08 00:15:00
7:35 PM,55.4,51.8,88,30.04,10.0,Calm,Calm,-,N/A,,Overcast,0,2012-12-08 00:35:00
7:55 PM,55.4,51.8,88,30.04,10.0,Calm,Calm,-,N/A,,Overcast,0,2012-12-08 00:55:00
8:15 PM,55.4,51.8,88,30.04,10.0,Calm,Calm,-,N/A,,Overcast,0,2012-12-08 01:15:00
8:35 PM,55.4,50.0,82,30.04,10.0,NW,3.5,-,N/A,,Overcast,320,2012-12-08 01:35:00
8:55 PM,55.4,50.0,82,30.04,10.0,Calm,Calm,-,N/A,,Overcast,0,2012-12-08 01:55:00
9:15 PM,55.4,50.0,82,30.04,10.0,Calm,Calm,-,N/A,,Overcast,0,2012-12-08 02:15:00
9:35 PM,53.6,50.0,88,30.04,10.0,Calm,Calm,-,N/A,,Overcast,0,2012-12-08 02:35:00
9:55 PM,53.6,50.0,88,30.04,10.0,Calm,Calm,-,N/A,,Mostly Cloudy,0,2012-12-08 02:55:00
10:15 PM,50.0,48.2,94,30.04,10.0,Calm,Calm,-,N/A,,Clear,0,2012-12-08 03:15:00
10:35 PM,48.2,48.2,100,30.04,9.0,Calm,Calm,-,N/A,,Clear,0,2012-12-08 03:35:00
10:55 PM,48.2,48.2,100,30.05,8.0,Calm,Calm,-,N/A,,Clear,0,2012-12-08 03:55:00
11:15 PM,48.2,48.2,100,30.05,8.0,Calm,Calm,-,N/A,,Clear,0,2012-12-08 04:15:00
11:35 PM,46.4,46.4,100,30.05,5.0,Calm,Calm,-,N/A,,Clear,0,2012-12-08 04:35:00
11:55 PM,46.4,46.4,100,30.04,6.0,Calm,Calm,-,N/A,,Mostly Cloudy,0,2012-12-08 04:55:00